Terminal Aerodrome Forecast
Issued by NWS Mobile, AL

Home | Current Version | Previous Version | Text Only | Print | Product List | Glossary On
Versions: 1 2 3 4 5 6 7 8 9 10 11 12 13 14 15 16 17 18 19 20 21 22 23 24 25 26 27 28 29 30 31 32 33 34 35 36
000
FTUS44 KMOB 070536
TAFMOB
TAF
KMOB 070536Z 0706/0806 16003KT P6SM SCT250
     FM071500 24004KT P6SM SCT030
     FM071800 19009KT P6SM SCT040 PROB30 0719/0723 5SM TSRA BKN025CB
     FM080300 19004KT P6SM SKC=

USA.gov is the U.S. government's official web portal to all federal, state and local government web resources and services.